Probability
0 0 0 1 0 0 0 0 0 0 0 0 0 0 0 0 0 0 0 0 0 0 1 2 3 3 1 0 0 0 0 0 0 0 0 1 1 1 1 2 2 1 0
0 0 0 1 1 0 0 0 0 0 0 0 0 0 0 0 0 1 1 1 1 0 0 1 2 1 0 0 0 0 0 1 1 1 0 0 0 1 1 2 3 2 1
0 0 1 1 2 2 1 0 0 0 1 1 1 1 0 0 1 2 2 2 2 1 0 0 0 0 0 0 0 0 0 2 3 2 0 0 0 0 1 1 3 3 2
0 1 2 3 4 5 3 1 0 0 1 2 1 0 0 0 1 2 2 2 2 1 0 0 0 0 0 0 0 0 0 1 2 1 0 0 0 0 0 1 2 3 2
0 1 2 4 5 5 4 2 1 0 1 1 1 0 0 0 0 1 1 1 1 0 0 0 0 0 0 0 0 0 0 0 0 0 0 0 0 1 1 2 2 3 3
0 0 1 2 3 4 3 3 2 1 0 0 0 0 0 0 0 0 0 0 0 0 0 0 0 0 0 0 0 0 0 0 0 0 0 0 0 1 2 2 2 2 3
0 0 0 0 1 2 3 4 4 3 2 1 0 0 0 0 0 0 0 0 0 0 0 0 0 0 0 0 0 0 0 0 0 0 0 0 0 0 1 2 1 1 2
0 0 0 0 0 1 2 3 4 4 4 3 1 0 0 0 0 0 0 0 0 0 0 0 0 0 0 0 0 0 0 0 0 0 0 0 0 0 1 2 1 0 1
0 0 0 1 1 1 1 1 2 2 3 4 2 0 0 1 0 0 0 0 0 0 0 0 0 0 0 0 0 0 0 0 0 0 0 0 0 0 1 2 1 0 0
0 1 1 2 2 2 1 0 0 0 1 2 1 0 0 0 0 0 0 0 0 0 0 0 0 0 0 0 0 0 0 0 0 0 0 0 0 0 1 1 1 0 0
2 2 2 3 3 2 1 0 0 0 0 0 0 0 0 0 0 0 0 0 0 0 0 0 0 0 0 0 0 0 0 0 0 0 0 0 0 0 0 0 1 1 1
4 4 3 3 3 1 0 0 0 0 0 0 0 0 0 0 0 0 0 0 0 0 0 0 0 0 0 0 0 0 0 0 0 0 0 0 0 0 0 0 0 1 1
5 4 3 3 2 1 0 0 0 0 0 0 0 0 0 0 0 0 0 0 0 0 0 0 0 0 0 0 0 0 0 0 0 0 0 0 0 0 0 0 0 0 1
5 4 3 3 3 1 0 0 0 0 0 0 0 0 0 0 0 0 0 0 0 0 0 0 0 0 0 0 0 0 0 0 0 0 0 0 0 0 0 0 1 1 1
5 4 3 3 3 2 1 0 0 0 0 0 0 0 0 0 0 0 0 0 0 0 0 0 0 0 0 0 0 0 0 0 0 0 0 0 0 0 0 1 2 2 1
6 4 3 3 3 3 2 1 0 0 0 0 0 0 0 0 0 0 0 0 0 0 0 0 0 0 0 0 0 0 0 0 0 0 0 0 0 0 0 1 2 2 1
6 5 4 3 3 3 3 1 0 0 0 0 0 0 0 0 0 0 0 0 0 0 0 0 0 0 0 0 0 0 0 0 0 0 0 0 0 0 0 0 1 2 2
6 6 5 4 3 3 3 2 1 0 0 0 0 0 0 0 0 0 0 0 0 0 0 0 0 0 0 0 0 0 0 0 0 0 0 0 0 0 0 0 1 2 2
6 6 6 5 4 3 3 2 1 0 0 0 0 0 0 0 1 0 0 0 0 0 0 0 0 0 0 0 0 0 0 0 0 0 0 0 0 0 0 0 0 1 1
6 6 6 6 4 3 3 2 1 0 0 0 0 0 0 0 0 0 0 0 0 0 0 0 0 0 0 0 0 0 0 0 0 0 0 0 0 0 0 0 0 0 0
6 5 6 6 4 3 3 2 0 0 0 0 0 0 0 0 0 0 0 0 0 0 0 0 0 0 0 0 0 0 0 0 0 0 0 0 0 0 0 0 0 0 0
6 6 5 6 5 4 3 2 0 0 0 0 0 0 0 0 0 0 0 0 0 0 0 0 0 0 0 0 0 0 0 0 0 0 0 0 0 0 0 0 0 0 0
6 6 6 6 6 4 3 1 0 0 0 0 0 0 0 0 0 0 0 0 0 0 0 0 0 0 0 0 0 0 0 0 0 0 0 0 0 0 0 0 0 0 0
4 6 6 6 6 5 4 1 0 0 0 0 0 0 0 0 0 0 0 0 0 0 0 0 0 0 0 0 0 0 0 0 0 0 0 0 0 0 0 0 0 0 0
3 5 6 6 6 6 5 3 1 0 0 0 0 0 0 0 0 0 0 0 0 0 0 0 0 0 0 0 0 0 0 0 0 0 0 0 0 0 0 0 0 0 0
3 4 6 6 6 6 6 3 1 0 0 0 0 0 0 0 0 0 0 0 0 0 0 0 0 0 0 0 0 0 0 0 0 0 0 0 0 0 0 0 0 0 0
Wind_Speed
2 2 5 7 9 9 9 9 8 8 8 8 8 9 9 9 9 9 8 8 8 8 9 9 9 10 10 10 10 10 10 10 9 9 9 9 9 9 9 9 9 6 10
4 3 6 8 9 9 9 9 8 8 8 8 8 8 8 8 8 8 8 8 8 8 9 9 9 9 10 10 10 10 9 9 9 8 8 7 8 8 9 9 8 6 9
5 4 5 8 9 9 9 8 8 8 8 8 8 8 8 8 7 8 7 8 8 8 8 8 9 9 9 9 9 9 9 9 9 8 7 4 4 7 8 8 8 9 8
6 4 5 8 9 9 8 8 8 8 7 7 7 7 7 7 7 7 8 8 8 8 8 8 8 8 8 8 8 9 8 8 8 7 4 3 3 6 7 7 8 8 8
6 4 5 8 9 8 8 8 8 7 7 7 7 7 7 7 7 7 7 7 7 7 7 8 8 8 8 8 8 8 8 8 8 6 3 3 2 5 7 7 7 7 7
6 4 5 8 8 8 8 8 8 7 7 7 7 7 7 6 7 7 7 7 7 7 7 7 7 7 7 7 7 8 8 8 6 4 3 2 2 5 6 6 6 6 6
6 4 5 8 8 8 8 7 7 7 7 7 7 7 6 6 6 7 7 7 6 6 6 6 7 7 6 6 7 8 8 7 5 3 2 2 2 4 4 5 5 5 5
6 5 5 7 7 7 7 7 7 7 7 7 7 7 6 6 6 6 7 6 6 6 6 6 6 7 6 6 7 8 8 7 4 3 2 2 2 3 4 4 4 4 5
6 5 4 4 5 6 6 6 6 6 7 7 7 7 6 6 6 6 6 6 5 5 6 5 6 6 6 6 6 7 8 8 4 2 2 1 2 3 3 4 4 4 4
5 5 4 3 3 3 3 5 6 6 6 7 7 6 6 6 6 6 5 5 5 5 5 5 5 5 6 6 6 7 8 6 3 2 1 1 2 3 3 3 3 3 4
4 3 3 3 3 2 3 3 4 5 5 5 5 6 6 3 3 3 4 5 5 5 5 5 5 6 6 6 6 7 6 3 2 2 1 2 2 3 3 3 3 3 3
2 2 2 3 3 2 2 2 2 2 2 3 3 3 2 2 3 3 4 5 5 5 5 5 6 6 5 3 4 5 3 3 2 2 2 2 2 2 2 2 3 3 2
3 2 2 2 2 2 2 2 1 1 2 2 2 2 2 3 2 2 2 2 3 4 3 4 4 3 2 2 2 2 2 2 2 2 2 4 3 2 2 2 1 1 2
2 2 2 2 2 2 2 2 2 2 1 1 2 2 2 2 2 2 1 1 1 1 2 2 2 2 2 2 2 2 2 1 1 1 2 4 4 3 3 2 1 1 2
2 2 2 2 2 2 2 2 2 2 2 1 1 2 2 2 1 1 1 1 1 1 1 1 1 2 2 2 2 2 1 1 1 2 2 4 5 4 4 3 2 2 2
2 2 1 2 2 3 2 2 2 2 2 2 1 1 2 2 2 1 1 1 1 1 1 1 1 1 1 1 2 2 2 1 1 2 2 3 5 5 5 4 3 3 3
2 2 2 2 2 3 2 2 2 2 2 2 1 1 2 2 2 2 1 1 1 1 1 1 1 1 1 2 2 2 2 2 1 1 2 2 3 5 6 6 5 4 4
2 3 2 2 2 2 2 2 1 2 2 1 1 1 1 2 2 2 1 1 1 1 1 1 1 1 1 1 1 2 2 1 1 1 1 2 2 2 4 6 6 5 6
2 3 3 2 2 2 2 2 2 2 2 1 1 1 1 1 2 2 1 1 1 1 1 1 1 1 1 2 2 1 1 1 1 1 1 1 1 2 2 4 6 6 6
2 2 3 2 2 2 2 1 1 2 1 1 1 1 1 1 2 2 1 1 1 1 1 1 1 1 1 1 1 2 2 2 1 1 1 1 1 1 1 2 3 4 6
1 2 2 2 2 1 1 1 1 1 1 0 1 1 1 1 1 2 1 1 1 1 1 1 1 1 2 2 1 2 2 2 1 1 1 1 2 2 1 2 2 2 3
1 2 2 2 2 1 1 1 1 1 1 1 0 0 0 1 1 2 2 1 1 1 1 1 1 0 1 1 1 1 2 3 2 2 1 1 2 1 2 2 2 2 2
1 2 2 2 2 2 1 1 1 1 1 1 1 0 0 0 1 1 2 2 2 2 1 1 1 1 1 1 1 1 0 2 3 3 2 2 2 2 2 2 2 3 3
2 2 2 2 2 2 2 2 2 2 1 1 1 1 1 0 0 1 2 2 2 2 1 1 1 1 1 1 1 1 1 1 1 3 3 2 3 3 3 3 3 3 3
2 2 2 2 2 2 2 2 2 2 1 1 0 0 0 1 1 0 1 2 2 2 2 1 1 1 1 1 1 1 1 1 1 2 4 4 4 3 3 3 3 3 3
1 1 1 2 2 2 2 2 3 3 2 1 1 1 1 1 1 1 0 1 1 1 2 2 2 1 1 1 1 1 1 1 2 2 4 4 4 4 4 3 3 3 3
Wind_Direction
165 182 146 117 109 104 101 97 92 94 93 92 90 89 86 82 79 77 72 70 69 69 67 65 63 64 64 65 65 62 62 63 61 62 64 67 69 70 67 62 58 56 60
153 162 135 116 112 106 101 98 93 91 91 90 90 89 87 84 81 79 75 70 66 67 67 66 63 62 61 62 63 62 63 61 59 60 58 58 64 70 68 63 64 65 61
129 134 128 116 112 107 103 100 96 92 90 89 88 87 85 85 81 77 75 70 67 67 68 69 66 63 61 60 61 62 61 59 59 59 53 34 51 70 69 64 64 64 62
123 121 115 111 111 108 104 100 98 96 93 92 90 87 86 85 81 75 73 70 68 67 67 69 69 65 63 60 58 57 54 54 58 59 43 27 39 73 72 66 62 61 59
111 112 111 106 107 106 102 99 96 95 94 93 90 85 82 82 78 76 72 68 67 67 65 64 65 64 61 58 56 52 49 52 54 50 39 38 41 78 74 66 60 59 58
104 105 116 109 107 105 103 100 96 94 93 91 88 86 82 79 77 75 73 70 67 67 66 63 62 60 55 51 49 46 47 50 51 44 40 33 31 79 75 70 64 59 60
107 97 109 106 106 106 102 99 98 95 91 87 84 84 83 79 77 75 73 69 66 65 66 66 62 54 47 42 39 39 41 45 47 43 39 33 48 79 76 73 67 60 60
113 103 100 92 93 98 100 98 94 92 90 86 81 78 80 79 80 77 74 68 63 63 63 62 57 47 40 38 37 34 34 39 43 35 31 23 58 73 73 72 68 64 63
104 105 100 96 89 85 89 92 88 84 82 80 74 69 68 72 75 72 70 67 65 64 62 60 53 45 39 36 33 30 31 33 31 20 21 1 45 72 77 76 71 67 64
96 104 105 98 93 92 89 84 81 81 80 75 70 65 65 67 69 67 63 62 63 62 58 55 50 43 35 33 30 26 27 26 31 27 13 3 49 66 72 76 74 68 63
88 101 113 111 102 100 99 86 79 79 78 75 70 70 68 62 61 61 53 55 58 57 53 50 44 42 38 32 25 22 23 17 24 23 357 18 44 60 68 68 68 66 59
128 121 114 121 122 117 101 87 84 73 75 76 74 80 71 67 55 53 48 49 49 47 49 49 45 41 33 17 12 15 17 16 17 4 352 9 21 38 52 66 65 65 63
158 148 128 127 131 130 113 106 88 73 66 74 80 78 74 71 64 55 51 40 42 43 38 30 27 23 18 9 9 10 15 18 6 345 350 358 357 4 10 33 52 56 57
146 161 153 141 134 131 121 119 114 100 81 66 69 78 86 84 75 64 55 47 41 37 44 30 17 8 7 1 2 8 17 15 1 347 351 355 347 347 343 348 355 20 34
165 176 164 148 143 139 128 127 120 120 111 85 78 80 93 100 100 87 66 55 42 31 34 27 17 5 2 353 353 5 9 7 5 353 345 354 351 344 334 328 337 352 351
177 179 173 153 146 140 137 136 136 127 119 104 93 99 106 108 108 104 88 65 41 31 22 14 4 9 353 352 354 355 342 344 6 359 350 348 357 356 349 343 340 344 339
175 160 156 148 133 136 140 137 129 134 123 113 110 99 111 108 114 119 110 83 31 23 32 21 6 18 7 357 350 341 342 344 352 355 357 357 349 360 3 359 349 342 338
158 149 155 132 131 142 140 138 129 129 125 117 112 106 121 123 126 128 116 97 54 54 39 31 20 23 4 350 337 328 332 333 331 340 6 5 358 356 350 353 348 340 334
163 152 148 144 147 153 143 133 120 120 121 123 120 114 132 139 138 134 129 112 104 92 55 34 20 18 360 341 322 321 318 311 312 340 336 333 337 344 341 340 342 337 329
151 150 149 143 142 148 132 116 108 92 96 108 131 139 138 151 144 135 125 113 111 93 52 34 18 5 354 316 320 325 305 292 295 299 286 300 315 320 334 337 331 326 326
126 139 167 159 159 156 150 155 158 164 163 156 142 116 121 141 151 143 128 133 120 129 142 75 33 21 4 353 2 329 313 293 279 291 295 298 309 309 324 323 321 323 319
169 173 173 182 178 186 191 186 180 180 184 149 80 53 87 124 147 149 144 152 156 148 128 98 62 57 341 1 23 350 326 322 308 300 283 277 293 315 308 304 300 307 307
182 195 187 191 181 178 159 113 91 68 48 32 355 311 308 165 173 172 165 165 173 174 188 199 168 147 230 302 6 112 205 269 309 301 289 289 302 296 281 277 276 285 289
205 193 182 171 168 169 160 149 147 172 208 238 228 249 317 328 199 183 172 176 181 184 195 208 204 213 181 253 309 323 254 238 263 300 301 297 303 287 270 275 269 270 276
191 181 181 165 161 157 161 169 177 193 208 221 193 148 319 324 317 221 186 188 189 191 197 199 212 215 211 222 239 279 296 306 271 256 285 302 305 282 276 266 258 263 270
144 124 144 161 161 156 162 173 188 193 189 179 194 212 247 285 306 311 267 212 208 210 209 207 204 213 232 247 252 245 237 233 253 253 267 289 293 290 286 263 258 258 258